Location: *
(45.5224°N, 122.7471°W)
Time: 21:25:11
(UTC+00:00)

ADEOS - Pass Details

Date: 09 April 2020
Orbit: 792 x 795 km, 98.9° (Epoch: 02 June)

Event Time Altitude Azimuth Distance (km) Brightness Sun altitude
Rises 12:53:25 0° 10° (N) 3,308 7.2 -7.9°
Reaches altitude 10° 12:55:48 10° 6° (N) 2,374 6.4 -7.5°
Maximum altitude 13:00:52 53° 290° (WNW) 974 3.8 -6.6°
Drops below altitude 10° 13:05:55 10° 215° (SW) 2,356 5.6 -5.8°
Sets 13:08:16 0° 211° (SSW) 3,280 6.3 -5.4°
